{"data":{"norad_id":69566,"intl_designator":"2026-135W","name":"STARLINK-37909","alt_names":[],"object_type":"PAYLOAD","status":"ACTIVE","operator":null,"country":"US","launch_date":"2026-06-15","launch_site_code":"AFWTR","launch_vehicle":null,"mission":null,"orbit_class":"UNKNOWN","rcs_meters":null,"size_class":null,"mass_kg":null,"dimensions":null,"purposes":["comms"],"wikipedia_slug":null,"has_3d_model":false,"image_url":null,"decayed_at":null,"tle_current":{"epoch":"2026-09-20T00:50:46.718016Z","epoch_age_seconds":61842,"freshness":"FRESH","line1":"1 69566U 26135W   26263.03526294  .00016113  00000+0  50063-3 0  9997","line2":"2 69566  97.2822 290.8005 0001426 106.5076 253.6323 15.33427484 14938","mean_motion":15.33427484,"eccentricity":0.0001426,"inclination_deg":97.2822,"raan_deg":290.8005,"arg_perigee_deg":106.5076,"mean_anomaly_deg":253.6323,"bstar":0.00050063,"rev_number":1493,"period_min":93.907277326458,"perigee_km":464.61937404207,"apogee_km":466.57120649125,"semimajor_km":6843.7322902667,"source":"CELESTRAK","updated_at":"2026-09-20T09:00:44.245893Z"}}}